Lewisburg, WV

12:50 AM EDT on June 29, 2017 (GMT -0400)
Greenbrier Valley

Weather History for KLWB - January, 2015

Change the Weather History Date:

Wednesday, January 14, 2015

  Actual Average Record
Temperature  
Mean Temperature 30 °F 28 °F  
Max Temperature 33 °F 38 °F 64 °F (2007)
Min Temperature 27 °F 18 °F 9 °F (1997)
Degree Days  
Heating Degree Days 35    
Month to date heating degree days 502  
Since 1 July heating degree days 2527  
Cooling Degree Days 0    
Month to date cooling degree days 0  
Year to date cooling degree days 0  
Moisture  
Dew Point 26 °F    
Average Humidity 84    
Maximum Humidity 96    
Minimum Humidity 72    
Precipitation  
Precipitation 0.00 in - 0.44 in (2013)
Snow  
Snow T in - - ()
Month to date snowfall T  
Since 1 July snowfall 2.0  
Snow Depth 0.00 in    
Sea Level Pressure  
Sea Level Pressure 30.20 in    
Wind  
Wind Speed 3 mph (NNW)    
Max Wind Speed 8 mph    
Max Gust Speed -    
Visibility 7 miles    
Events Snow    
T = Trace of Precipitation, MM = Missing Value Source: NWS Daily Summary

Daily Weather History Graph

Daily Weather History Graph

Search for Another Location

Airport or City:

Trip Planner

Search our weather history database for the weather conditions in past years. The results will help you decide how hot, cold, wet, or windy it might be!

Date:

Astronomy

Jan. 14, 2015 Rise Set
Actual Time 7:36 AM EST 5:25 PM EST
Civil Twilight 7:07 AM EST 5:53 PM EST
Nautical Twilight 6:35 AM EST 6:26 PM EST
Astronomical Twilight 6:03 AM EST 6:57 PM EST
Moon 1:30 AM EST (1/14) 12:36 PM EST (1/14)
Length of Visible Light 10h 46m
Length of Day
9h 48m
Last Quarter, 37% of the Moon is Illuminated
Jan 14
Last Quarter
Jan 20
New
Jan 26
First Quarter
Feb 3
Full
Feb 11
Last Quarter

Hourly Weather History & Observations

Time (EST) Temp. Windchill Dew Point Humidity Pressure Visibility Wind Dir Wind Speed Gust Speed Precip Events Conditions
12:15 AM 29.1 °F 25.4 °F 22.1 °F 75% 30.30 in 10.0 mi SE 3.5 mph - N/A   Overcast
12:35 AM 28.9 °F 25.2 °F 22.8 °F 78% 30.30 in 10.0 mi East 3.5 mph - N/A   Overcast
12:55 AM 28.6 °F 24.8 °F 22.8 °F 79% 30.29 in 5.0 mi East 3.5 mph - N/A   Haze
1:15 AM 28.4 °F 24.6 °F 23.0 °F 80% 30.29 in 7.0 mi East 3.5 mph - N/A   Overcast
1:35 AM 28.2 °F 24.4 °F 23.0 °F 81% 30.29 in 10.0 mi NE 3.5 mph - N/A   Overcast
1:55 AM 28.2 °F 24.4 °F 23.0 °F 81% 30.29 in 10.0 mi ENE 3.5 mph - N/A   Overcast
2:15 AM 28.0 °F 22.8 °F 22.8 °F 81% 30.28 in 10.0 mi ENE 4.6 mph - N/A   Overcast
2:35 AM 27.9 °F 24.0 °F 22.5 °F 80% 30.28 in 10.0 mi East 3.5 mph - N/A   Overcast
2:55 AM 27.5 °F 22.2 °F 22.8 °F 83% 30.28 in 7.0 mi ENE 4.6 mph - N/A   Overcast
3:15 AM 27.5 °F 23.6 °F 22.6 °F 82% 30.28 in 10.0 mi ENE 3.5 mph - N/A   Overcast
3:35 AM 27.5 °F 23.6 °F 22.3 °F 81% 30.27 in 10.0 mi ENE 3.5 mph - N/A   Overcast
3:55 AM 27.5 °F 22.2 °F 22.1 °F 80% 30.26 in 10.0 mi ENE 4.6 mph - N/A   Overcast
4:15 AM 27.5 °F 23.6 °F 22.6 °F 82% 30.25 in 3.0 mi ENE 3.5 mph - N/A Snow Light Snow
4:35 AM 27.5 °F 23.6 °F 23.7 °F 86% 30.25 in 7.0 mi NNE 3.5 mph - N/A   Overcast
4:55 AM 27.3 °F 23.4 °F 23.9 °F 87% 30.24 in 5.0 mi NE 3.5 mph - N/A   Overcast
5:15 AM 27.3 °F 23.4 °F 23.7 °F 86% 30.25 in 10.0 mi NE 3.5 mph - N/A   Overcast
5:35 AM 27.5 °F 23.6 °F 23.5 °F 85% 30.24 in 10.0 mi NE 3.5 mph - N/A   Overcast
5:55 AM 27.5 °F - 23.0 °F 83% 30.24 in 10.0 mi Calm Calm - N/A   Overcast
6:15 AM 27.5 °F - 23.0 °F 83% 30.24 in 10.0 mi Calm Calm - N/A   Overcast
6:35 AM 27.3 °F 23.4 °F 23.7 °F 86% 30.24 in 7.0 mi NNE 3.5 mph - N/A   Overcast
6:55 AM 27.1 °F - 23.7 °F 87% 30.24 in 7.0 mi Calm Calm - N/A   Overcast
7:15 AM 27.1 °F - 24.6 °F 90% 30.23 in 4.0 mi Calm Calm - N/A   Overcast
7:35 AM 27.0 °F 23.0 °F 25.2 °F 93% 30.23 in 3.0 mi NNE 3.5 mph - N/A   Overcast
7:55 AM 27.0 °F 23.0 °F 25.5 °F 94% 30.22 in 1.8 mi NNE 3.5 mph - N/A   Overcast
8:15 AM 27.3 °F - 25.9 °F 94% 30.22 in 1.2 mi Calm Calm - N/A   Overcast
8:35 AM 27.3 °F - 26.1 °F 95% 30.23 in 2.0 mi Calm Calm - N/A   Overcast
8:55 AM 27.5 °F - 26.4 °F 96% 30.23 in 5.0 mi Calm Calm - N/A   Overcast
9:15 AM 28.0 °F - 26.6 °F 94% 30.23 in 3.0 mi Calm Calm - N/A   Overcast
9:35 AM 28.0 °F - 26.6 °F 94% 30.23 in 2.5 mi Calm Calm - N/A   Overcast
9:55 AM 28.2 °F - 26.6 °F 94% 30.23 in 3.0 mi Calm Calm - N/A   Overcast
10:15 AM 28.8 °F - 27.1 °F 94% 30.23 in 4.0 mi Calm Calm - N/A   Overcast
10:35 AM 28.9 °F - 27.3 °F 94% 30.22 in 3.0 mi Calm Calm - N/A   Overcast
10:55 AM 29.3 °F - 27.5 °F 93% 30.22 in 1.5 mi Calm Calm - N/A   Overcast
11:15 AM 29.5 °F - 28.0 °F 94% 30.22 in 2.5 mi Calm Calm - N/A   Overcast
11:35 AM 29.7 °F - 28.2 °F 94% 30.20 in 1.8 mi Calm Calm - N/A   Overcast
11:55 AM 30.0 °F - 28.4 °F 94% 30.19 in 1.8 mi Calm Calm - N/A   Overcast
12:15 PM 30.6 °F - 29.1 °F 94% 30.18 in 1.8 mi Calm Calm - N/A   Overcast
12:35 PM 30.7 °F - 29.5 °F 95% 30.17 in 1.5 mi Calm Calm - N/A   Overcast
12:55 PM 31.1 °F 27.7 °F 29.8 °F 95% 30.17 in 1.5 mi SSW 3.5 mph - N/A   Overcast
1:15 PM 31.5 °F 26.8 °F 30.2 °F 95% 30.15 in 1.8 mi SSW 4.6 mph - N/A   Overcast
1:35 PM 31.8 °F 28.5 °F 30.4 °F 94% 30.15 in 2.5 mi South 3.5 mph - N/A   Overcast
1:55 PM 32.0 °F 27.5 °F 30.9 °F 96% 30.14 in 3.0 mi SSW 4.6 mph - N/A   Overcast
2:15 PM 32.0 °F 28.7 °F 31.1 °F 96% 30.14 in 4.0 mi SW 3.5 mph - N/A   Overcast
2:35 PM 32.7 °F - 31.5 °F 95% 30.13 in 4.0 mi Calm Calm - N/A   Overcast
2:55 PM 32.9 °F 29.8 °F 31.6 °F 95% 30.12 in 5.0 mi SSW 3.5 mph - N/A   Overcast
3:15 PM 33.1 °F - 31.6 °F 94% 30.12 in 7.0 mi Calm Calm - N/A   Overcast
3:35 PM 32.9 °F - 31.1 °F 93% 30.12 in 7.0 mi Calm Calm - N/A   Overcast
3:55 PM 33.1 °F - 31.5 °F 94% 30.12 in 7.0 mi Calm Calm - N/A   Overcast
4:15 PM 32.9 °F 29.8 °F 31.1 °F 93% 30.13 in 7.0 mi SSW 3.5 mph - N/A   Overcast
4:35 PM 33.1 °F 30.0 °F 31.1 °F 92% 30.14 in 7.0 mi WSW 3.5 mph - N/A   Overcast
4:55 PM 33.1 °F - 31.6 °F 94% 30.14 in 7.0 mi Calm Calm - N/A   Overcast
5:15 PM 33.1 °F - 31.5 °F 94% 30.14 in 7.0 mi Calm Calm - N/A   Overcast
5:35 PM 33.3 °F 28.9 °F 30.9 °F 91% 30.14 in 10.0 mi West 4.6 mph - N/A   Overcast
5:55 PM 33.1 °F - 30.2 °F 89% 30.14 in 10.0 mi Calm Calm - N/A   Overcast
6:15 PM 32.9 °F - 28.6 °F 84% 30.15 in 10.0 mi Calm Calm - N/A   Overcast
6:35 PM 32.5 °F 28.1 °F 27.3 °F 81% 30.15 in 10.0 mi WNW 4.6 mph - N/A   Overcast
6:55 PM 32.0 °F 24.8 °F 25.7 °F 78% 30.15 in 10.0 mi NW 8.1 mph - N/A   Overcast
7:15 PM 32.0 °F 24.8 °F 25.5 °F 77% 30.15 in 10.0 mi NW 8.1 mph - N/A   Overcast
7:35 PM 31.5 °F 26.8 °F 24.6 °F 76% 30.15 in 10.0 mi WNW 4.6 mph - N/A   Overcast
7:55 PM 31.3 °F 26.6 °F 23.7 °F 74% 30.15 in 10.0 mi NW 4.6 mph - N/A   Overcast
8:15 PM 30.9 °F 24.3 °F 23.2 °F 73% 30.15 in 10.0 mi NW 6.9 mph - N/A   Overcast
8:35 PM 30.6 °F 24.7 °F 23.2 °F 74% 30.16 in 10.0 mi NW 5.8 mph - N/A   Overcast
8:55 PM 30.2 °F 23.4 °F 23.0 °F 75% 30.16 in 10.0 mi WNW 6.9 mph - N/A   Overcast
9:15 PM 30.0 °F 24.1 °F 22.3 °F 73% 30.16 in 10.0 mi NW 5.8 mph - N/A   Overcast
9:35 PM 29.7 °F 26.1 °F 21.9 °F 73% 30.16 in 10.0 mi WNW 3.5 mph - N/A   Overcast
9:55 PM 29.1 °F 25.4 °F 21.2 °F 72% 30.16 in 10.0 mi West 3.5 mph - N/A   Overcast
10:15 PM 28.9 °F 22.8 °F 21.2 °F 73% 30.16 in 10.0 mi WNW 5.8 mph - N/A   Overcast
10:35 PM 28.4 °F 23.3 °F 20.8 °F 73% 30.17 in 10.0 mi West 4.6 mph - N/A   Overcast
10:55 PM 28.4 °F 21.2 °F 21.0 °F 74% 30.17 in 10.0 mi West 6.9 mph - N/A   Overcast
11:15 PM 28.2 °F 23.1 °F 21.2 °F 75% 30.17 in 10.0 mi WNW 4.6 mph - N/A   Overcast
11:35 PM 28.0 °F 22.8 °F 20.8 °F 74% 30.17 in 10.0 mi West 4.6 mph - N/A   Overcast
11:55 PM 27.5 °F 22.2 °F 20.8 °F 76% 30.17 in 10.0 mi WNW 4.6 mph - N/A   Overcast